TimeCST,TemperatureF,Dew PointF,Humidity,Sea Level PressureIn,VisibilityMPH,Wind Direction,Wind SpeedMPH,Gust SpeedMPH,PrecipitationIn,Events,Conditions,WindDirDegrees,DateUTC
12:15 AM,30.2,12.2,47,30.27,10.0,NW,6.9,-,N/A,,Clear,310,2012-12-21 06:15:00
1:15 AM,28.4,12.2,51,30.27,10.0,WNW,5.8,-,N/A,,Clear,290,2012-12-21 07:15:00
1:55 AM,26.6,12.2,55,30.27,10.0,SW,3.5,-,N/A,,Clear,220,2012-12-21 07:55:00
2:15 AM,26.6,14.0,59,30.28,10.0,WSW,4.6,-,N/A,,Clear,240,2012-12-21 08:15:00
2:35 AM,26.6,12.2,55,30.28,10.0,WSW,4.6,-,N/A,,Clear,240,2012-12-21 08:35:00
2:55 AM,24.8,14.0,64,30.27,10.0,Calm,Calm,-,N/A,,Clear,0,2012-12-21 08:55:00
3:35 AM,24.8,14.0,64,30.28,10.0,WSW,4.6,-,N/A,,Clear,250,2012-12-21 09:35:00
3:55 AM,24.8,15.8,69,30.28,10.0,West,3.5,-,N/A,,Clear,270,2012-12-21 09:55:00
4:15 AM,24.8,15.8,69,30.28,10.0,Calm,Calm,-,N/A,,Clear,0,2012-12-21 10:15:00
4:35 AM,24.8,15.8,69,30.28,10.0,West,3.5,-,N/A,,Clear,260,2012-12-21 10:35:00
4:55 AM,24.8,15.8,69,30.29,10.0,West,3.5,-,N/A,,Clear,270,2012-12-21 10:55:00
5:15 AM,24.8,15.8,69,30.29,10.0,WSW,5.8,-,N/A,,Clear,240,2012-12-21 11:15:00
5:35 AM,24.8,15.8,69,30.29,10.0,WSW,6.9,-,N/A,,Clear,250,2012-12-21 11:35:00
5:55 AM,24.8,15.8,69,30.30,10.0,WSW,6.9,-,N/A,,Clear,240,2012-12-21 11:55:00
6:15 AM,23.0,15.8,74,30.30,10.0,Calm,Calm,-,N/A,,Clear,0,2012-12-21 12:15:00
6:35 AM,21.2,14.0,74,30.31,10.0,West,3.5,-,N/A,,Clear,260,2012-12-21 12:35:00
6:55 AM,23.0,15.8,74,30.31,10.0,West,4.6,-,N/A,,Clear,270,2012-12-21 12:55:00
7:35 AM,21.2,14.0,74,30.32,10.0,Calm,Calm,-,N/A,,Clear,0,2012-12-21 13:35:00
7:55 AM,23.0,15.8,74,30.32,10.0,Calm,Calm,-,N/A,,Clear,0,2012-12-21 13:55:00
8:15 AM,24.8,17.6,74,30.33,10.0,Calm,Calm,-,N/A,,Clear,0,2012-12-21 14:15:00
8:55 AM,30.2,17.6,60,30.34,10.0,Calm,Calm,-,N/A,,Clear,0,2012-12-21 14:55:00
9:15 AM,30.2,17.6,60,30.34,10.0,Calm,Calm,-,N/A,,Clear,0,2012-12-21 15:15:00
9:35 AM,33.8,17.6,52,30.35,10.0,Calm,Calm,-,N/A,,Clear,0,2012-12-21 15:35:00
9:55 AM,33.8,17.6,52,30.35,10.0,Calm,Calm,-,N/A,,Clear,0,2012-12-21 15:55:00
10:15 AM,35.6,19.4,52,30.36,10.0,SW,3.5,-,N/A,,Clear,220,2012-12-21 16:15:00
10:55 AM,37.4,17.6,45,30.36,10.0,WSW,3.5,-,N/A,,Clear,250,2012-12-21 16:55:00
11:15 AM,39.2,19.4,45,30.35,10.0,WSW,4.6,-,N/A,,Clear,240,2012-12-21 17:15:00
11:55 AM,41.0,15.8,36,30.34,10.0,WSW,6.9,-,N/A,,Clear,240,2012-12-21 17:55:00
12:15 PM,42.8,17.6,36,30.33,10.0,Calm,Calm,-,N/A,,Clear,0,2012-12-21 18:15:00
12:35 PM,44.6,17.6,34,30.33,10.0,SW,5.8,-,N/A,,Clear,230,2012-12-21 18:35:00
1:15 PM,46.4,17.6,32,30.31,10.0,West,4.6,-,N/A,,Clear,280,2012-12-21 19:15:00
1:35 PM,46.4,15.8,29,30.30,10.0,WNW,3.5,-,N/A,,Clear,300,2012-12-21 19:35:00
1:55 PM,48.2,15.8,27,30.29,10.0,Calm,Calm,-,N/A,,Clear,0,2012-12-21 19:55:00
2:15 PM,48.2,15.8,27,30.28,10.0,Calm,Calm,-,N/A,,Clear,0,2012-12-21 20:15:00
2:55 PM,50.0,15.8,26,30.27,10.0,SSE,3.5,-,N/A,,Clear,160,2012-12-21 20:55:00
3:15 PM,48.2,17.6,30,30.27,10.0,Calm,Calm,-,N/A,,Clear,0,2012-12-21 21:15:00
3:35 PM,50.0,17.6,28,30.26,10.0,Calm,Calm,-,N/A,,Clear,0,2012-12-21 21:35:00
3:55 PM,50.0,17.6,28,30.26,10.0,SSE,3.5,-,N/A,,Clear,150,2012-12-21 21:55:00
4:15 PM,48.2,15.8,27,30.25,10.0,SSE,4.6,-,N/A,,Clear,150,2012-12-21 22:15:00
4:35 PM,46.4,15.8,29,30.25,10.0,SE,3.5,-,N/A,,Clear,130,2012-12-21 22:35:00
5:15 PM,42.8,15.8,34,30.25,10.0,Calm,Calm,-,N/A,,Clear,0,2012-12-21 23:15:00
5:35 PM,39.2,15.8,39,30.25,10.0,Calm,Calm,-,N/A,,Clear,0,2012-12-21 23:35:00
5:55 PM,42.8,17.6,36,30.26,10.0,East,3.5,-,N/A,,Clear,80,2012-12-21 23:55:00
6:35 PM,42.8,17.6,36,30.26,10.0,ESE,4.6,-,N/A,,Clear,110,2012-12-22 00:35:00
6:55 PM,39.2,17.6,42,30.26,10.0,ESE,4.6,-,N/A,,Clear,120,2012-12-22 00:55:00
7:15 PM,39.2,17.6,42,30.26,10.0,ESE,5.8,-,N/A,,Clear,110,2012-12-22 01:15:00
7:35 PM,39.2,17.6,42,30.26,10.0,ESE,4.6,-,N/A,,Clear,120,2012-12-22 01:35:00
8:15 PM,39.2,17.6,42,30.26,10.0,ESE,5.8,-,N/A,,Clear,120,2012-12-22 02:15:00
8:35 PM,37.4,17.6,45,30.26,10.0,ESE,5.8,-,N/A,,Clear,120,2012-12-22 02:35:00
9:15 PM,37.4,17.6,45,30.25,10.0,ESE,6.9,-,N/A,,Clear,120,2012-12-22 03:15:00
9:55 PM,35.6,17.6,48,30.25,10.0,ESE,5.8,-,N/A,,Clear,120,2012-12-22 03:55:00
10:15 PM,35.6,17.6,48,30.25,10.0,ESE,5.8,-,N/A,,Clear,120,2012-12-22 04:15:00
10:35 PM,33.8,17.6,52,30.25,10.0,ESE,5.8,-,N/A,,Clear,120,2012-12-22 04:35:00
10:55 PM,33.8,17.6,52,30.25,10.0,SE,4.6,-,N/A,,Clear,130,2012-12-22 04:55:00
11:15 PM,33.8,19.4,56,30.24,10.0,SE,3.5,-,N/A,,Clear,130,2012-12-22 05:15:00
11:35 PM,33.8,17.6,52,30.24,10.0,SE,4.6,-,N/A,,Clear,130,2012-12-22 05:35:00
11:55 PM,32.0,17.6,55,30.24,10.0,SE,4.6,-,N/A,,Clear,140,2012-12-22 05:55:00